Volver al catálogo

STARLINK-37860

ActivoComunicacionesSSO
NORAD 69554·PAYLOAD·🇺🇸 United States

Lanzado Jun 15, 2026 desde Vandenberg Space Force Base

Loading…

Próximos Pases (próximas 24 horas)

TLE

ActualizadoSource: CelesTrak SupGP

Época: Sep 14, 2026, 23:31 UTC

1 69554C 26135J   26257.98034722  .00064251  00000+0  19947-2 0  2579
2 69554  97.2834 285.7308 0001623  88.7512 254.3960 15.33402801    17

Sigue STARLINK-37860 en tiempo real con AllMySat

Download on the App Store